| time (UTC) | temp F | wind direction | speed MPH | gust MPH | rain 1hr in | rain 24hr in | rain mn in | humidity % | barometer mb |
| 20260906233103 | 91 | 290 | 2.0 | 8.0 | 0.00 | 0.00 | 0.00 | 20 | 1018.6 |
| 20260906231605 | 92 | 192 | 2.0 | 6.0 | 0.00 | 0.00 | 0.00 | 20 | 1018.7 |
| 20260906230106 | 92 | 236 | 5.0 | 9.0 | 0.00 | 0.00 | 0.00 | 19 | 1018.6 |
| 20260906224603 | 93 | 265 | 3.0 | 6.0 | 0.00 | 0.00 | 0.00 | 20 | 1018.5 |
| 20260906223058 | 92 | 150 | 4.0 | 8.0 | 0.00 | 0.00 | 0.00 | 20 | 1018.7 |
| 20260906221602 | 91 | 245 | 6.0 | 15.0 | 0.00 | 0.00 | 0.00 | 20 | 1018.7 |
| 20260906214556 | 92 | 254 | 1.0 | 10.0 | 0.00 | 0.00 | 0.00 | 19 | 1019.3 |
| 20260906213058 | 91 | 202 | 5.0 | 11.0 | 0.00 | 0.00 | 0.00 | 19 | 1019.8 |
| 20260906211603 | 90 | 350 | 3.0 | 10.0 | 0.00 | 0.00 | 0.00 | 19 | 1020.0 |
| 20260906210106 | 89 | 350 | 2.0 | 8.0 | 0.00 | 0.00 | 0.00 | 19 | 1020.2 |
| 20260906204607 | 89 | 319 | 2.0 | 6.0 | 0.00 | 0.00 | 0.00 | 20 | 1020.3 |
| 20260906203105 | 89 | 334 | 1.0 | 8.0 | 0.00 | 0.00 | 0.00 | 20 | 1020.5 |
| 20260906201605 | 90 | 287 | 2.0 | 6.0 | 0.00 | 0.00 | 0.00 | 19 | 1020.8 |
| 20260906200107 | 91 | 211 | 2.0 | 7.0 | 0.00 | 0.00 | 0.00 | 19 | 1020.7 |
| 20260906194607 | 90 | 202 | 3.0 | 8.0 | 0.00 | 0.00 | 0.00 | 19 | 1020.9 |
| 20260906193103 | 89 | 229 | 3.0 | 9.0 | 0.00 | 0.00 | 0.00 | 20 | 1021.0 |
| 20260906191615 | 88 | 271 | 2.0 | 11.0 | 0.00 | 0.00 | 0.00 | 21 | 1021.3 |
| 20260906190059 | 88 | 207 | 2.0 | 4.0 | 0.00 | 0.00 | 0.00 | 21 | 1021.5 |
| 20260906184603 | 87 | 295 | 5.0 | 10.0 | 0.00 | 0.00 | 0.00 | 22 | 1021.7 |
| 20260906183107 | 88 | 250 | 3.0 | 8.0 | 0.00 | 0.00 | 0.00 | 23 | 1022.0 |
| 20260906181600 | 89 | 166 | 3.0 | 7.0 | 0.00 | 0.00 | 0.00 | 22 | 1022.2 |
| 20260906180116 | 87 | 252 | 1.0 | 4.0 | 0.00 | 0.00 | 0.00 | 24 | 1022.5 |
| 20260906174559 | 86 | 47 | 2.0 | 8.0 | 0.00 | 0.00 | 0.00 | 25 | 1022.8 |
| 20260906173106 | 85 | 266 | 1.0 | 6.0 | 0.00 | 0.00 | 0.00 | 28 | 1023.0 |
| 20260906171605 | 85 | 232 | 2.0 | 4.0 | 0.00 | 0.00 | 0.00 | 27 | 1023.1 |
| 20260906170123 | 85 | 0 | 1.0 | 3.0 | 0.00 | 0.00 | 0.00 | 31 | 1023.1 |
| 20260906164602 | 84 | 0 | 0.0 | 0.0 | 0.00 | 0.00 | 0.00 | 29 | 1023.3 |
| 20260906163115 | 81 | 0 | 0.0 | 0.0 | 0.00 | 0.00 | 0.00 | 32 | 1023.4 |
| 20260906161603 | 79 | 0 | 0.0 | 0.0 | 0.00 | 0.00 | 0.00 | 36 | 1023.4 |
| 20260906160058 | 78 | 0 | 0.0 | 0.0 | 0.00 | 0.00 | 0.00 | 35 | 1023.1 |
| 20260906154600 | 77 | 0 | 0.0 | 0.0 | 0.00 | 0.00 | 0.00 | 37 | 1023.2 |
| 20260906153100 | 77 | 0 | 0.0 | 1.0 | 0.00 | 0.00 | 0.00 | 37 | 1023.3 |
| 20260906151605 | 78 | 0 | 0.0 | 1.0 | 0.00 | 0.00 | 0.00 | 36 | 1023.1 |
| 20260906150111 | 76 | 322 | 0.0 | 2.0 | 0.00 | 0.00 | 0.00 | 38 | 1023.1 |
| 20260906144603 | 73 | 0 | 1.0 | 3.0 | 0.00 | 0.00 | 0.00 | 41 | 1023.1 |
| 20260906143101 | 75 | 0 | 0.0 | 0.0 | 0.00 | 0.00 | 0.00 | 38 | 1023.0 |
| 20260906141600 | 71 | 0 | 0.0 | 1.0 | 0.00 | 0.00 | 0.00 | 44 | 1022.7 |
| 20260906140108 | 68 | 146 | 0.0 | 3.0 | 0.00 | 0.00 | 0.00 | 47 | 1022.6 |
| 20260906134601 | 67 | 95 | 0.0 | 0.0 | 0.00 | 0.00 | 0.00 | 48 | 1022.4 |
| 20260906133133 | 67 | 0 | 0.0 | 1.0 | 0.00 | 0.00 | 0.00 | 45 | 1022.3 |
| 20260906131611 | 68 | 19 | 0.0 | 3.0 | 0.00 | 0.00 | 0.00 | 42 | 1022.4 |
| 20260906130115 | 67 | 43 | 1.0 | 4.0 | 0.00 | 0.00 | 0.00 | 43 | 1022.2 |
| 20260906124601 | 67 | 0 | 0.0 | 0.0 | 0.00 | 0.00 | 0.00 | 45 | 1022.1 |
| 20260906123104 | 67 | 0 | 0.0 | 0.0 | 0.00 | 0.00 | 0.00 | 44 | 1022.2 |
| 20260906121601 | 69 | 0 | 0.0 | 0.0 | 0.00 | 0.00 | 0.00 | 41 | 1021.9 |
| 20260906120105 | 69 | 0 | 0.0 | 2.0 | 0.00 | 0.00 | 0.00 | 41 | 1021.8 |
| 20260906114601 | 69 | 0 | 0.0 | 1.0 | 0.00 | 0.00 | 0.00 | 43 | 1022.0 |
| 20260906113101 | 69 | 0 | 0.0 | 2.0 | 0.00 | 0.00 | 0.00 | 41 | 1022.0 |
| 20260906111617 | 70 | 0 | 1.0 | 2.0 | 0.00 | 0.00 | 0.00 | 41 | 1021.9 |
| 20260906104604 | 70 | 0 | 0.0 | 1.0 | 0.00 | 0.00 | 0.00 | 40 | 1022.0 |
| 20260906103104 | 71 | 144 | 0.0 | 2.0 | 0.00 | 0.00 | 0.00 | 40 | 1021.9 |
| 20260906101601 | 72 | 0 | 0.0 | 2.0 | 0.00 | 0.00 | 0.00 | 38 | 1022.0 |
| 20260906100058 | 72 | 15 | 2.0 | 4.0 | 0.00 | 0.00 | 0.00 | 36 | 1021.7 |
| 20260906094600 | 73 | 332 | 0.0 | 3.0 | 0.00 | 0.00 | 0.00 | 36 | 1021.7 |
| 20260906093057 | 72 | 0 | 0.0 | 0.0 | 0.00 | 0.00 | 0.00 | 37 | 1021.6 |
| 20260906091602 | 73 | 0 | 0.0 | 2.0 | 0.00 | 0.00 | 0.00 | 37 | 1021.4 |
| 20260906090107 | 72 | 0 | 0.0 | 0.0 | 0.00 | 0.00 | 0.00 | 38 | 1021.4 |
| 20260906084613 | 72 | 84 | 1.0 | 1.0 | 0.00 | 0.00 | 0.00 | 39 | 1021.4 |
| 20260906083100 | 71 | 0 | 0.0 | 2.0 | 0.00 | 0.00 | 0.00 | 39 | 1021.6 |
| 20260906081603 | 71 | 96 | 1.0 | 2.0 | 0.00 | 0.00 | 0.00 | 40 | 1021.6 |
| 20260906080107 | 70 | 84 | 1.0 | 2.0 | 0.00 | 0.00 | 0.00 | 40 | 1021.8 |
| 20260906074602 | 70 | 86 | 1.0 | 2.0 | 0.00 | 0.00 | 0.00 | 41 | 1022.0 |
| 20260906073059 | 70 | 86 | 0.0 | 2.0 | 0.00 | 0.00 | 0.00 | 41 | 1022.0 |
| 20260906071602 | 71 | 67 | 0.0 | 2.0 | 0.00 | 0.00 | 0.00 | 40 | 1022.0 |
| 20260906070103 | 72 | 80 | 0.0 | 2.0 | 0.00 | 0.00 | 0.00 | 38 | 1022.0 |
| 20260906064557 | 72 | 0 | 0.0 | 3.0 | 0.00 | 0.00 | 0.00 | 38 | 1022.0 |
| 20260906063057 | 73 | 0 | 0.0 | 0.0 | 0.00 | 0.00 | 0.00 | 38 | 1022.0 |
| 20260906061604 | 73 | 0 | 0.0 | 0.0 | 0.00 | 0.00 | 0.00 | 37 | 1022.0 |
| 20260906054607 | 77 | 0 | 0.0 | 3.0 | 0.00 | 0.00 | 0.00 | 32 | 1021.7 |
| 20260906053103 | 77 | 13 | 2.0 | 3.0 | 0.00 | 0.00 | 0.00 | 32 | 1021.7 |
| 20260906051612 | 77 | 48 | 2.0 | 4.0 | 0.00 | 0.00 | 0.00 | 32 | 1021.6 |
| 20260906050104 | 78 | 59 | 2.0 | 4.0 | 0.00 | 0.00 | 0.00 | 31 | 1021.6 |
| 20260906044607 | 78 | 40 | 2.0 | 6.0 | 0.00 | 0.00 | 0.00 | 31 | 1021.6 |
| 20260906043100 | 77 | 38 | 3.0 | 5.0 | 0.00 | 0.00 | 0.00 | 32 | 1021.6 |
| 20260906041601 | 78 | 38 | 2.0 | 5.0 | 0.00 | 0.00 | 0.00 | 31 | 1021.6 |
| 20260906040139 | 78 | 13 | 2.0 | 4.0 | 0.00 | 0.00 | 0.00 | 31 | 1021.9 |
| 20260906034611 | 78 | 46 | 1.0 | 4.0 | 0.00 | 0.00 | 0.00 | 33 | 1021.9 |
| 20260906033106 | 78 | 65 | 1.0 | 3.0 | 0.00 | 0.00 | 0.00 | 32 | 1021.8 |
| 20260906031605 | 78 | 347 | 1.0 | 4.0 | 0.00 | 0.00 | 0.00 | 33 | 1021.6 |
| 20260906030104 | 78 | 14 | 0.0 | 2.0 | 0.00 | 0.00 | 0.00 | 33 | 1021.3 |
| 20260906024614 | 79 | 33 | 0.0 | 2.0 | 0.00 | 0.00 | 0.00 | 33 | 1021.1 |
| 20260906023104 | 79 | 35 | 0.0 | 3.0 | 0.00 | 0.00 | 0.00 | 33 | 1021.0 |
| 20260906021603 | 80 | 28 | 1.0 | 2.0 | 0.00 | 0.00 | 0.00 | 33 | 1020.9 |
| 20260906020106 | 80 | 60 | 1.0 | 1.0 | 0.00 | 0.00 | 0.00 | 33 | 1020.7 |
| 20260906014600 | 82 | 348 | 1.0 | 3.0 | 0.00 | 0.00 | 0.00 | 31 | 1020.7 |
| 20260906013114 | 83 | 315 | 1.0 | 4.0 | 0.00 | 0.00 | 0.00 | 31 | 1020.6 |
| 20260906011602 | 84 | 322 | 2.0 | 5.0 | 0.00 | 0.00 | 0.00 | 30 | 1020.6 |
| 20260906010104 | 85 | 279 | 2.0 | 7.0 | 0.00 | 0.00 | 0.00 | 29 | 1020.6 |
| 20260906004604 | 85 | 298 | 4.0 | 8.0 | 0.00 | 0.00 | 0.00 | 29 | 1020.6 |
| 20260906003104 | 85 | 310 | 2.0 | 8.0 | 0.00 | 0.00 | 0.00 | 29 | 1020.6 |
| 20260906001610 | 86 | 298 | 3.0 | 5.0 | 0.00 | 0.00 | 0.00 | 29 | 1020.5 |
| 20260905234559 | 86 | 337 | 4.0 | 11.0 | 0.00 | 0.00 | 0.00 | 28 | 1020.4 |